This demonstration page uses our WeatherBlox Daily Observations layout. Learn more.

Left ArrowRight Arrow

Hourly Observations for September 27, 2018

Temp ( °F °C ) Dew Point ( °F °C ) Humidity (%) Winds ( mph kmh ) Pressure ( in mb ) Visibility ( mi km ) Precip ( " mm )
12:57 am 00:57 Clear 57 13.9 41 5 55 55 SSW 12 19 30.03 1017 10 16 0.00 0.00
1:57 am 01:57 Clear 55 12.8 41 5 59 59 SSW 12 19 30.01 1016 10 16 0.00 0.00
2:57 am 02:57 Clear 56 13.3 39 3.9 53 53 SSW 15 24 29.99 1016 10 16 0.00 0.00
3:57 am 03:57 Clear 55 12.8 39 3.9 55 55 SSW 17 28 29.98 1015 10 16 0.00 0.00
4:57 am 04:57 Clear 53 11.7 39 3.9 59 59 SSW 14 22 29.96 1014 10 16 0.00 0.00
5:57 am 05:57 Clear 53 11.7 39 3.9 59 59 SSW 14 22 29.95 1014 10 16 0.00 0.00
6:57 am 06:57 Clear 52 11.1 39 3.9 61 61 W 6 9 29.98 1015 10 16 0.00 0.00
7:57 am 07:57 Sunny 50 10 40 4.4 68 68 W 3 6 29.99 1016 10 16 0.00 0.00
8:57 am 08:57 Sunny 54 12.2 41 5 62 62 SW 6 9 29.98 1015 10 16 0.00 0.00
9:57 am 09:57 Sunny 59 15 41 5 51 51 WSW 8 13 29.96 1015 10 16 0.00 0.00
10:57 am 10:57 Sunny 63 17.2 41 5 45 45 VRB 5 7 29.95 1014 10 16 0.00 0.00
11:57 am 11:57 Sunny 67 19.4 41 5 39 39 Calm 29.94 1014 10 16 0.00 0.00
12:57 pm 12:57 Sunny 72 22.2 39 3.9 30 30 NNE 10 17 29.92 1013 10 16 0.00 0.00
1:57 pm 13:57 Sunny 75 23.9 37 2.8 25 25 NNE 13 20 29.91 1013 10 16 0.00 0.00
2:57 pm 14:57 Sunny 75 23.9 37 2.8 25 25 ENE 9 15 29.90 1012 10 16 0.00 0.00
3:57 pm 15:57 Sunny 75 23.9 36 2.2 24 24 NE 15 24 29.89 1012 10 16 0.00 0.00
4:57 pm 16:57 Sunny 73 22.8 38 3.3 28 28 NE 15 24 29.90 1013 10 16 0.00 0.00
5:57 pm 17:57 Sunny 70 21.1 39 3.9 32 32 NNE 20 31 29.92 1013 10 16 0.00 0.00
6:57 pm 18:57 Sunny 64 17.8 39 3.9 40 40 NNE 16 26 29.96 1015 10 16 0.00 0.00
7:57 pm 19:57 Clear 60 15.6 42 5.6 52 52 NNE 15 24 30.00 1016 10 16 0.00 0.00
8:57 pm 20:57 Clear 57 13.9 43 6.1 60 60 NE 14 22 30.00 1016 10 16 0.00 0.00
9:57 pm 21:57 Clear 56 13.3 44 6.7 65 65 NNE 12 19 30.03 1017 10 16 0.00 0.00
10:57 pm 22:57 Clear 55 12.8 45 7.2 69 69 NE 14 22 30.03 1017 10 16 0.00 0.00
11:57 pm 23:57 Clear 55 12.8 45 7.2 69 69 NE 15 24 30.06 1018 10 16 0.00 0.00

Powered by AerisWeather